Powrót do katalogu

THORAD AGENA D DEB

LostSSO
NORAD 42491·DEBRIS·🇺🇸 United States

Wystrzelony Apr 8, 1970 z Vandenberg Space Force Base

Loading…

Następne Przeloty (najbliższe 24 godziny)

TLE

NieaktualneSource: Space-Track

Epoka: Apr 29, 2025, 22:47 UTC

1 42491U 70025QV  25119.94965370  .00000700  00000-0  88642-3 0  9993
2 42491  99.9910  23.0749 0008882 192.2264 228.6875 13.67524692570034

Śledź THORAD AGENA D DEB w czasie rzeczywistym z AllMySat

Download on the App Store